sat.trackr.live / text

‹ back to catalog

STARLINK-35729

NORAD 66837 · 2025-280S

PAYLOAD ACTIVE UNKNOWN

§ Identity

Operator
Country
US
Launch date
2025-12-02
Launch site
AFWTR
Launch vehicle
Mass (kg)
RCS (m²)

Purposes: comms

External: N2YO · Heavens-Above · Gunter

§ Orbital elements

Epoch: 2026-05-25T03:30:51.333408Z

Period
96.11 min
Inclination
70.0002°
Eccentricity
0.0004263
Mean motion
14.98325891 rev/d
Perigee alt
569.1 km
Apogee alt
575.0 km
Semi-major
6,950.2 km
B*
-7.5066e-5
RAAN
141.8742°
Arg perigee
263.9567°
Mean anomaly
96.1107°
Rev number
2,752

§ Raw data

STARLINK-357291 66837U 25280S   26145.14642747 -.00000989  00000+0 -75066-4 0  99952 66837  70.0002 141.8742 0004263 263.9567  96.1107 14.98325891 27521

JSON: /api/v1/satellites/66837 · /tle

For live sub-satellite position, see the globe view (requires WebGL).

§ Visibility from observer

Set your observer location to see the next 7 days of passes ≥ 10°. The values pass through the URL so the page stays shareable.

No JS? Fill the form by hand. The geolocation button needs JavaScript.